H1 CPF 2 NER 2022 1 8 9 008 01 glonass143 H2 2007501 9143 46805 2022 1 8 0 0 0 2022 1 11 23 45 0 900 1 1 0 0 0 1 H9 10 0 59587 0.00000 0 8743367.553 6811000.178 -22966308.507 10 0 59587 900.00000 0 6648561.934 8728091.810 -23020349.262 10 0 59587 1800.00000 0 4713684.552 10777729.749 -22626990.817 10 0 59587 2700.00000 0 2981885.300 12905003.971 -21793911.984 10 0 59587 3600.00000 0 1485609.481 15048865.852 -20537335.392 10 0 59587 4500.00000 0 245458.300 17144535.665 -18881710.178 10 0 59587 5400.00000 0 -730443.108 19126082.826 -16859235.138 10 0 59587 6300.00000 0 -1446545.115 20929071.510 -14509231.473 10 0 59587 7200.00000 0 -1919437.648 22493161.225 -11877377.256 10 0 59587 8100.00000 0 -2176898.637 23764553.847 -9014818.364 10 0 59587 9000.00000 0 -2256468.225 24698184.810 -5977173.135 10 0 59587 9900.00000 0 -2203610.012 25259566.786 -2823450.210 10 0 59587 10800.00000 0 -2069538.064 25426208.720 385099.249 10 0 59587 11700.00000 0 -1908802.400 25188550.869 3586172.427 10 0 59587 12600.00000 0 -1776735.801 24550376.834 6717625.308 10 0 59587 13500.00000 0 -1726870.572 23528685.508 9718678.936 10 0 59587 14400.00000 0 -1808434.973 22153028.570 12531097.925 10 0 59587 15300.00000 0 -2064035.551 20464341.492 15100318.197 10 0 59587 16200.00000 0 -2527623.613 18513317.149 17376502.246 10 0 59587 17100.00000 0 -3222832.011 16358390.042 19315501.785 10 0 59587 18000.00000 0 -4161752.734 14063415.249 20879709.522 10 0 59587 18900.00000 0 -5344207.287 11695138.614 22038784.192 10 0 59587 19800.00000 0 -6757541.284 9320563.059 22770235.412 10 0 59587 20700.00000 0 -8376952.726 7004320.073 23059857.541 10 0 59587 21600.00000 0 -10166341.382 4806154.880 22902004.637 10 0 59587 22500.00000 0 -12079644.960 2778628.939 22299701.347 10 0 59587 23400.00000 0 -14062607.549 965134.465 21264587.570 10 0 59587 24300.00000 0 -16054907.774 -601697.430 19816697.674 10 0 59587 25200.00000 0 -17992559.011 -1901129.570 17984077.979 10 0 59587 26100.00000 0 -19810482.402 -2924946.081 15802249.250 10 0 59587 27000.00000 0 -21445145.872 -3677548.862 13313523.830 10 0 59587 27900.00000 0 -22837159.256 -4175519.854 10566189.849 10 0 59587 28800.00000 0 -23933716.951 -4446668.047 7613577.745 10 0 59587 29700.00000 0 -24690785.575 -4528601.954 4513026.757 10 0 59587 30600.00000 0 -25074944.405 -4466888.309 1324771.206 10 0 59587 31500.00000 0 -25064800.715 -4312875.333 -1889231.607 10 0 59587 32400.00000 0 -24651919.835 -4121273.307 -5066508.829 10 0 59587 33300.00000 0 -23841230.163 -3947595.601 -8145290.835 10 0 59587 34200.00000 0 -22650885.471 -3845569.307 -11065716.927 10 0 59587 35100.00000 0 -21111589.804 -3864626.064 -13771003.887 10 0 59587 36000.00000 0 -19265412.967 -4047580.185 -16208554.092 10 0 59587 36900.00000 0 -17164146.133 -4428593.241 -18330981.120 10 0 59587 37800.00000 0 -14867266.386 -5031512.060 -20097032.701 10 0 59587 38700.00000 0 -12439595.341 -5868651.164 -21472393.042 10 0 59587 39600.00000 0 -9948749.738 -6940071.808 -22430349.031 10 0 59587 40500.00000 0 -7462490.317 -8233388.789 -22952307.693 10 0 59587 41400.00000 0 -5046079.270 -9724113.924 -23028155.192 10 0 59587 42300.00000 0 -2759756.079 -11376522.473 -22656450.773 10 0 59587 43200.00000 0 -656436.227 -13145006.871 -21844452.170 10 0 59587 44100.00000 0 1220272.182 -14975861.687 -20607972.218 10 0 59587 45000.00000 0 2837652.179 -16809425.544 -18971069.515 10 0 59587 45900.00000 0 4174997.268 -18582490.800 -16965579.176 10 0 59587 46800.00000 0 5224220.927 -20230880.438 -14630492.642 10 0 59587 47700.00000 0 5989932.195 -21692084.440 -12011198.544 10 0 59587 48600.00000 0 6488975.701 -22907845.305 -9158599.259 10 0 59587 49500.00000 0 6749456.932 -23826584.399 -6128120.265 10 0 59587 50400.00000 0 6809295.122 -24405567.260 -2978631.708 10 0 59587 51300.00000 0 6714366.038 -24612716.999 228696.746 10 0 59587 52200.00000 0 6516314.191 -24427999.577 3431585.244 10 0 59587 53100.00000 0 6270127.768 -23844322.765 6567853.821 10 0 59587 54000.00000 0 6031579.604 -22867911.036 9576629.435 10 0 59587 54900.00000 0 5854642.895 -21518140.617 12399526.368 10 0 59587 55800.00000 0 5788991.316 -19826841.630 14981776.937 10 0 59587 56700.00000 0 5877689.423 -17837096.426 17273290.742 10 0 59587 57600.00000 0 6155171.039 -15601584.213 19229622.225 10 0 59587 58500.00000 0 6645591.055 -13180540.822 20812828.195 10 0 59587 59400.00000 0 7361620.358 -10639418.282 21992199.326 10 0 59587 60300.00000 0 8303734.950 -8046340.995 22744852.074 10 0 59587 61200.00000 0 9460029.714 -5469463.706 23056170.092 10 0 59587 62100.00000 0 10806565.407 -2974340.125 22920087.059 10 0 59587 63000.00000 0 12308235.341 -621410.546 22339205.633 10 0 59587 63900.00000 0 13920116.535 1536288.096 21324750.249 10 0 59587 64800.00000 0 15589249.961 3455095.640 19896354.330 10 0 59587 65700.00000 0 17256776.580 5102304.464 18081685.538 10 0 59587 66600.00000 0 18860340.704 6457272.817 15915915.629 10 0 59587 67500.00000 0 20336660.916 7512030.150 13441044.388 10 0 59587 68400.00000 0 21624161.326 8271349.874 10705089.979 10 0 59587 69300.00000 0 22665552.987 8752287.173 7761160.787 10 0 59587 70200.00000 0 23410257.004 8983201.939 4666426.324 10 0 59587 71100.00000 0 23816567.120 9002308.631 1481006.904 10 0 59587 72000.00000 0 23853460.158 8855814.796 -1733196.143 10 0 59587 72900.00000 0 23501977.390 8595727.615 -4913706.729 10 0 59587 73800.00000 0 22756117.786 8277421.952 -7998692.797 10 0 59587 74700.00000 0 21623204.716 7957073.571 -10928173.193 10 0 59587 75600.00000 0 20123709.873 7689067.031 -13645188.568 10 0 59587 76500.00000 0 18290541.142 7523488.756 -16096912.954 10 0 59587 77400.00000 0 16167823.778 7503812.160 -18235683.871 10 0 59587 78300.00000 0 13809225.595 7664873.432 -20019930.731 10 0 59587 79200.00000 0 11275895.912 8031224.163 -21414983.440 10 0 59587 80100.00000 0 8634104.223 8615930.957 -22393745.557 10 0 59587 81000.00000 0 5952676.858 9419873.149 -22937219.258 10 0 59587 81900.00000 0 3300338.120 10431568.747 -23034872.240 10 0 59587 82800.00000 0 743066.329 11627536.358 -22684839.796 10 0 59587 83700.00000 0 -1658425.850 12973178.382 -21893958.456 10 0 59587 84600.00000 0 -3850982.651 14424148.824 -20677630.758 10 0 59587 85500.00000 0 -5790973.521 15928148.688 -19059523.879 10 0 59588 0.00000 0 -7445857.507 17427073.844 -17071108.169 10 0 59588 900.00000 0 -8795280.570 18859426.318 -14751043.317 10 0 59588 1800.00000 0 -9831659.141 20162885.946 -12144426.730 10 0 59588 2700.00000 0 -10560229.991 21276937.173 -9301915.065 10 0 59588 3600.00000 0 -10998563.488 22145438.650 -6278738.526 10 0 59588 4500.00000 0 -11175563.090 22719028.310 -3133626.185 10 0 59588 5400.00000 0 -11129994.400 22957262.535 72336.447 10 0 59588 6300.00000 0 -10908607.039 22830399.283 3276895.196 10 0 59588 7200.00000 0 -10563929.657 22320749.959 6417836.876 10 0 59588 8100.00000 0 -10151832.055 21423543.020 9434197.042 10 0 59588 9000.00000 0 -9728958.111 20147262.782 12267442.263 10 0 59588 9900.00000 0 -9350138.372 18513448.983 14862603.758 10 0 59588 10800.00000 0 -9065891.870 16555965.214 17169340.592 10 0 59588 11700.00000 0 -8920122.691 14319766.395 19142912.122 10 0 59588 12600.00000 0 -8948108.459 11859216.400 20745041.219 10 0 59588 13500.00000 0 -9174865.485 9236025.326 21944652.203 10 0 59588 14400.00000 0 -9613959.438 6516891.605 22718469.782 10 0 59588 15300.00000 0 -10266811.743 3770946.149 23051467.956 10 0 59588 16200.00000 0 -11122531.203 1067103.795 22937160.671 10 0 59588 17100.00000 0 -12158278.520 -1528569.116 22377728.807 10 0 59588 18000.00000 0 -13340149.150 -3955362.698 21383981.032 10 0 59588 18900.00000 0 -14624538.423 -6160203.997 19975149.020 10 0 59588 19800.00000 0 -15959932.638 -8099616.232 18178520.438 10 0 59588 20700.00000 0 -17289051.961 -9741276.141 16028916.185 10 0 59588 21600.00000 0 -18551256.010 -11065105.396 13568021.188 10 0 59588 22500.00000 0 -19685111.730 -12063851.296 10843580.941 10 0 59588 23400.00000 0 -20631015.930 -12743133.034 7908478.762 10 0 59588 24300.00000 0 -21333762.183 -13120952.275 4819711.184 10 0 59588 25200.00000 0 -21744943.724 -13226689.234 1637281.132 10 0 59588 26100.00000 0 -21825090.502 -13099627.100 -1576969.490 10 0 59588 27000.00000 0 -21545449.544 -12787067.760 -4760564.818 10 0 59588 27900.00000 0 -20889332.591 -12342119.087 -7851613.755 10 0 59588 28800.00000 0 -19852973.222 -11821248.048 -10790017.981 10 0 59588 29700.00000 0 -18445856.361 -11281703.933 -13518645.128 10 0 59588 30600.00000 0 -16690505.311 -10778921.397 -15984443.751 10 0 59588 31500.00000 0 -14621734.496 -10364013.852 -18139477.837 10 0 59588 32400.00000 0 -12285398.512 -10081463.781 -19941860.559 10 0 59588 33300.00000 0 -9736689.263 -9967108.013 -21356569.059 10 0 59588 34200.00000 0 -7038051.935 -10046503.409 -22356124.498 10 0 59588 35100.00000 0 -4256806.306 -10333742.146 -22921124.483 10 0 59588 36000.00000 0 -1462572.072 -10830766.754 -23040617.873 10 0 59588 36900.00000 0 1275395.041 -11527213.898 -22712315.030 10 0 59588 37800.00000 0 3890846.148 -12400793.638 -21942629.768 10 0 59588 38700.00000 0 6323051.878 -13418188.364 -20746552.372 10 0 59588 39600.00000 0 8519081.010 -14536433.768 -19147356.274 10 0 59588 40500.00000 0 10435751.269 -15704723.917 -17176144.065 10 0 59588 41400.00000 0 12041172.088 -16866564.672 -14871241.553 10 0 59588 42300.00000 0 13315816.114 -17962184.941 -12277451.572 10 0 59588 43200.00000 0 14253076.056 -18931104.301 -9445181.908 10 0 59588 44100.00000 0 14859284.938 -19714748.896 -6429464.247 10 0 59588 45000.00000 0 15153200.297 -20259005.251 -3288883.337 10 0 59588 45900.00000 0 15164975.396 -20516604.272 -84437.321 10 0 59588 46800.00000 0 14934662.051 -20449234.714 3121648.391 10 0 59588 47700.00000 0 14510309.322 -20029296.807 6267130.261 10 0 59588 48600.00000 0 13945739.235 -19241221.874 9290955.043 10 0 59588 49500.00000 0 13298094.167 -18082302.039 12134443.853 10 0 59588 50400.00000 0 12625259.933 -16562994.768 14742428.688 10 0 59588 51300.00000 0 11983273.614 -14706688.986 17064319.564 10 0 59588 52200.00000 0 11423825.510 -12548941.959 19055081.810 10 0 59588 53100.00000 0 10991960.449 -10136218.280 20676105.013 10 0 59588 54000.00000 0 10724075.017 -7524182.745 21895947.379 10 0 59588 54900.00000 0 10646294.812 -4775617.372 22690941.719 10 0 59588 55800.00000 0 10773299.730 -1958048.259 23045651.880 10 0 59588 56700.00000 0 11107646.630 858820.213 22953171.236 10 0 59588 57600.00000 0 11639617.938 3605758.475 22415257.761 10 0 59588 58500.00000 0 12347602.891 6216643.116 21442302.978 10 0 59588 59400.00000 0 13198995.934 8630958.390 20053135.212 10 0 59588 60300.00000 0 14151575.221 10796065.070 18274660.369 10 0 59588 61200.00000 0 15155304.038 12669143.107 16141346.570 10 0 59588 62100.00000 0 16154480.114 14218728.094 13694561.820 10 0 59588 63000.00000 0 17090143.015 15425778.111 10981776.757 10 0 59588 63900.00000 0 17902638.590 16284226.907 8055647.325 10 0 59588 64800.00000 0 18534232.532 16801000.813 4972994.672 10 0 59588 65700.00000 0 18931662.614 16995499.205 1793701.843 10 0 59588 66600.00000 0 19048521.422 16898560.843 -1420451.205 10 0 59588 67500.00000 0 18847368.232 16550960.244 -4606991.328 10 0 59588 68400.00000 0 18301479.957 16001498.110 -7703970.793 10 0 59588 69300.00000 0 17396166.146 15304767.110 -10651176.355 10 0 59588 70200.00000 0 16129591.495 14518688.108 -13391304.647 10 0 59588 71100.00000 0 14513070.015 13701921.603 -15871080.507 10 0 59588 72000.00000 0 12570817.469 12911264.382 -18042295.882 10 0 59588 72900.00000 0 10339171.496 12199141.864 -19862748.952 10 0 59588 73800.00000 0 7865311.175 11611302.349 -21297065.100 10 0 59588 74700.00000 0 5205528.962 11184810.681 -22317383.864 10 0 59588 75600.00000 0 2423126.431 10946425.988 -22903898.843 10 0 59588 76500.00000 0 -413979.064 10911431.763 -23045240.369 10 0 59588 77400.00000 0 -3235837.626 11082967.451 -22738693.908 10 0 59588 78300.00000 0 -5973133.154 11451889.427 -21990250.254 10 0 59588 79200.00000 0 -8559822.539 11997167.064 -20814486.762 10 0 59588 80100.00000 0 -10935638.621 12686796.989 -19234282.043 10 0 59588 81000.00000 0 -13048353.635 13479196.911 -17280369.670 10 0 59588 81900.00000 0 -14855709.819 14325020.188 -14990739.433 10 0 59588 82800.00000 0 -16326937.650 15169314.575 -12409897.701 10 0 59588 83700.00000 0 -17443799.476 15953934.030 -9588001.148 10 0 59588 84600.00000 0 -18201116.088 16620101.750 -6579880.589 10 0 59588 85500.00000 0 -18606755.387 17111016.065 -3443974.037 10 0 59589 0.00000 0 -18681084.928 17374389.021 -241190.129 10 0 59589 900.00000 0 -18455912.570 17364810.247 2966277.478 10 0 59589 1800.00000 0 -17972960.925 17045835.781 6116157.001 10 0 59589 2700.00000 0 -17281941.033 16391713.807 9147308.771 10 0 59589 3600.00000 0 -16438307.095 15388673.725 12000910.774 10 0 59589 4500.00000 0 -15500787.637 14035724.013 14621598.074 10 0 59589 5400.00000 0 -14528797.464 12344924.725 16958533.815 10 0 59589 6300.00000 0 -13579839.574 10341122.477 18966391.356 10 0 59589 7200.00000 0 -12707006.256 8061158.304 20606228.879 10 0 59589 8100.00000 0 -11956684.247 5552580.535 21846240.125 10 0 59589 9000.00000 0 -11366559.950 2871915.314 22662367.391 10 0 59589 9900.00000 0 -10964008.101 82565.721 23038765.418 10 0 59589 10800.00000 0 -10764931.120 -2747574.401 22968107.723 10 0 59589 11700.00000 0 -10773097.582 -5548694.080 22451729.674 10 0 59589 12600.00000 0 -10980007.433 -8251720.606 21499605.545 10 0 59589 13500.00000 0 -11365289.735 -10790947.653 20130159.770 10 0 59589 14400.00000 0 -11897616.432 -13106528.086 18369915.502 10 0 59589 15300.00000 0 -12536094.154 -15146728.642 16252986.660 10 0 59589 16200.00000 0 -13232075.950 -16869853.478 13820422.501 10 0 59589 17100.00000 0 -13931317.093 -18245756.993 11119416.615 10 0 59589 18000.00000 0 -14576384.383 -19256883.165 8202395.073 10 0 59589 18900.00000 0 -15109217.430 -19898788.354 5126000.900 10 0 59589 19800.00000 0 -15473733.603 -20180125.978 1949994.323 10 0 59589 20700.00000 0 -15618366.188 -20122094.054 -1263909.718 10 0 59589 21600.00000 0 -15498427.790 -19757369.267 -4453243.966 10 0 59589 22500.00000 0 -15078198.154 -19128572.955 -7556007.279 10 0 59589 23400.00000 0 -14332647.142 -18286334.208 -10511874.722 10 0 59589 24300.00000 0 -13248718.902 -17287032.448 -13263375.126 10 0 59589 25200.00000 0 -11826121.824 -16190315.305 -15757012.674 10 0 59589 26100.00000 0 -10077589.837 -15056497.144 -17944310.118 10 0 59589 27000.00000 0 -8028602.880 -13943948.407 -19782753.144 10 0 59589 27900.00000 0 -5716577.185 -12906586.164 -21236617.432 10 0 59589 28800.00000 0 -3189558.378 -11991571.755 -22277662.432 10 0 59589 29700.00000 0 -504471.124 -11237312.409 -22885678.662 10 0 59589 30600.00000 0 2275002.444 -10671850.689 -23048878.257 10 0 59589 31500.00000 0 5080827.733 -10311709.167 -22764121.518 10 0 59589 32400.00000 0 7843206.763 -10161238.404 -22036975.403 10 0 59589 33300.00000 0 10493244.251 -10212495.116 -20881603.041 10 0 59589 34200.00000 0 12965580.387 -10445655.103 -19320486.502 10 0 59589 35100.00000 0 15200881.536 -10829943.032 -17383988.228 10 0 59589 36000.00000 0 17148085.867 -11325039.425 -15109759.518 10 0 59589 36900.00000 0 18766311.098 -11882905.136 -12542007.475 10 0 59589 37800.00000 0 20026345.604 -12449945.968 -9730634.551 10 0 59589 38700.00000 0 20911661.592 -12969425.731 -6730267.322 10 0 59589 39600.00000 0 21418908.843 -13384025.472 -3599193.505 10 0 59589 40500.00000 0 21557869.474 -13638440.437 -398228.011 10 0 59589 41400.00000 0 21350876.689 -13681904.609 2810469.721 10 0 59589 42300.00000 0 20831722.976 -13470535.846 5964603.706 10 0 59589 43200.00000 0 20044104.713 -12969402.074 9002951.037 10 0 59589 44100.00000 0 19039669.421 -12154220.941 11866549.401 10 0 59589 45000.00000 0 17875748.554 -11012620.718 14499839.297 10 0 59589 45900.00000 0 16612871.629 -9544908.789 16851738.910 10 0 59589 46800.00000 0 15312166.435 -7764314.692 18876631.041 10 0 59589 47700.00000 0 14032754.519 -5696696.709 20535243.402 10 0 59589 48600.00000 0 12829251.036 -3379723.292 21795405.761 10 0 59589 49500.00000 0 11749473.393 -861562.372 22632669.950 10 0 59589 50400.00000 0 10832454.193 1800867.977 23030781.272 10 0 59589 51300.00000 0 10106841.133 4544016.019 22981992.661 10 0 59589 52200.00000 0 9589750.311 7300093.385 22487215.818 10 0 59589 53100.00000 0 9286120.498 9999654.269 21556006.387 10 0 59589 54000.00000 0 9188595.127 12574250.981 20206383.240 10 0 59589 54900.00000 0 9277936.737 14959056.623 18464484.859 10 0 59589 55800.00000 0 9523956.485 17095346.723 16364068.828 10 0 59589 56700.00000 0 9886919.708 18932737.313 13945863.332 10 0 59589 57600.00000 0 10319368.535 20431086.695 11256782.431 10 0 59589 58500.00000 0 10768284.818 21561981.808 8349019.701 10 0 59589 59400.00000 0 11177502.132 22309747.286 5279037.309 10 0 59589 60300.00000 0 11490264.750 22671935.109 2106469.872 10 0 59589 61200.00000 0 11651825.046 22659274.376 -1107035.500 10 0 59589 62100.00000 0 11611968.812 22295083.569 -4299020.187 10 0 59589 63000.00000 0 11327360.807 21614170.268 -7407432.260 10 0 59589 63900.00000 0 10763610.330 20661265.026 -10371837.498 10 0 59589 64800.00000 0 9896968.308 19489055.845 -13134599.072 10 0 59589 65700.00000 0 8715582.985 18155906.558 -15642002.356 10 0 59589 66600.00000 0 7220260.024 16723355.744 -17845302.443 10 0 59589 67500.00000 0 5424693.739 15253501.938 -19701673.763 10 0 59589 68400.00000 0 3355158.530 13806385.473 -21175043.258 10 0 59589 69300.00000 0 1049672.390 12437477.216 -22236790.983 10 0 59589 70200.00000 0 -1443333.524 11195379.673 -22866304.810 10 0 59589 71100.00000 0 -4066784.667 10119836.707 -23051378.823 10 0 59589 72000.00000 0 -6757099.098 9240134.979 -22788447.977 10 0 59589 72900.00000 0 -9446601.510 8573963.527 -22082654.854 10 0 59589 73800.00000 0 -12066115.486 8126778.589 -20947747.405 10 0 59589 74700.00000 0 -14547626.647 7891699.489 -19405809.797 10 0 59589 75600.00000 0 -16826906.477 7849939.082 -17486831.599 10 0 59589 76500.00000 0 -18845988.186 7971749.807 -15228123.553 10 0 59589 77400.00000 0 -20555391.928 8217844.710 -12673591.195 10 0 59589 78300.00000 0 -21916007.211 8541232.824 -9872880.310 10 0 59589 79200.00000 0 -22900554.532 8889390.792 -6880410.724 10 0 59589 80100.00000 0 -23494565.769 9206678.461 -3754317.362 10 0 59589 81000.00000 0 -23696843.102 9436895.788 -555319.233 10 0 59589 81900.00000 0 -23519378.059 9525872.484 2654461.417 10 0 59589 82800.00000 0 -22986734.914 9423980.409 5812706.466 10 0 59589 83700.00000 0 -22134925.242 9088462.050 8858112.058 10 0 59589 84600.00000 0 -21009821.646 8485476.216 11731577.816 10 0 59589 85500.00000 0 -19665178.006 7591774.126 14377351.837 10 0 59590 0.00000 0 -18160339.995 6395934.776 16744109.178 10 0 59590 900.00000 0 -16557741.401 4899106.187 18785944.393 10 0 59590 1800.00000 0 -14920293.336 3115222.327 20463256.145 10 0 59590 2700.00000 0 -13308772.829 1070683.489 21743511.614 10 0 59590 3600.00000 0 -11779321.660 -1196486.115 22601873.248 10 0 59590 4500.00000 0 -10381158.721 -3637970.113 23021677.644 10 0 59590 5400.00000 0 -9154600.951 -6196926.889 22994757.552 10 0 59590 6300.00000 0 -8129474.782 -8810119.503 22521601.054 10 0 59590 7200.00000 0 -7323983.848 -11410321.346 21611344.859 10 0 59590 8100.00000 0 -6744079.600 -13928898.836 20281601.635 10 0 59590 9000.00000 0 -6383360.687 -16298464.978 18558124.213 10 0 59590 9900.00000 0 -6223504.921 -18455494.244 16474312.534 10 0 59590 10800.00000 0 -6235215.419 -20342790.698 14070572.095 10 0 59590 11700.00000 0 -6379640.962 -21911706.941 11393535.533 10 0 59590 12600.00000 0 -6610210.632 -23124021.435 8495161.799 10 0 59590 13500.00000 0 -6874805.152 -23953395.823 5431729.873 10 0 59590 14400.00000 0 -7118172.953 -24386351.163 2262746.275 10 0 59590 15300.00000 0 -7284488.403 -24422721.991 -950212.328 10 0 59590 16200.00000 0 -7319943.354 -24075569.119 -4144698.676 10 0 59590 17100.00000 0 -7175261.494 -23370554.795 -7258612.865 10 0 59590 18000.00000 0 -6808028.150 -22344806.650 -10231414.279 10 0 59590 18900.00000 0 -6184735.868 -21045318.470 -13005303.343 10 0 59590 19800.00000 0 -5282458.081 -19526955.398 -15526349.510 10 0 59590 20700.00000 0 -4090079.002 -17850147.876 -17745542.973 10 0 59590 21600.00000 0 -2609026.632 -16078371.658 -19619749.449 10 0 59590 22500.00000 0 -853476.793 -14275519.993 -21112549.359 10 0 59590 23400.00000 0 1149981.503 -12503278.496 -22194945.164 10 0 59590 24300.00000 0 3363206.436 -10818612.713 -22845923.418 10 0 59590 25200.00000 0 5737854.532 -9271473.405 -23052860.962 10 0 59590 26100.00000 0 8217167.013 -7902815.220 -22811767.714 10 0 59590 27000.00000 0 10738117.627 -6743010.983 -22127361.691 10 0 59590 27900.00000 0 13233833.183 -5810727.140 -21012975.028 10 0 59590 28800.00000 0 15636186.490 -5112306.459 -19490292.919 10 0 59590 29700.00000 0 17878454.237 -4641682.765 -17588930.569 10 0 59590 30600.00000 0 19897929.566 -4380830.140 -15345856.259 10 0 59590 31500.00000 0 21638380.715 -4300726.601 -12804671.631 10 0 59590 32400.00000 0 23052253.598 -4362790.633 -10014763.063 10 0 59590 33300.00000 0 24102526.682 -4520729.035 -7030340.525 10 0 59590 34200.00000 0 24764141.002 -4722717.242 -3909382.728 10 0 59590 35100.00000 0 25024945.959 -4913819.234 -712509.153 10 0 59590 36000.00000 0 24886121.797 -5038544.028 2498198.853 10 0 59590 36900.00000 0 24362061.660 -5043430.063 5660404.678 10 0 59590 37800.00000 0 23479718.795 -4879547.623 8712726.970 10 0 59590 38700.00000 0 22277446.918 -4504813.003 11595930.439 10 0 59590 39600.00000 0 20803382.942 -3886016.192 14254073.546 10 0 59590 40500.00000 0 19113440.323 -3000475.987 16635590.953 10 0 59590 41400.00000 0 17268997.361 -1837252.185 18694289.995 10 0 59590 42300.00000 0 15334377.310 -397863.224 20390242.192 10 0 59590 43200.00000 0 13374225.518 1303521.753 21690553.139 10 0 59590 44100.00000 0 11450892.766 3240425.453 22569996.495 10 0 59590 45000.00000 0 9621933.491 5374926.434 23011500.342 10 0 59590 45900.00000 0 7937822.522 7659009.757 23006477.023 10 0 59590 46800.00000 0 6439984.686 10036349.408 22554990.372 10 0 59590 47700.00000 0 5159218.652 12444449.556 21665757.135 10 0 59590 48600.00000 0 4114579.928 14817056.879 20355982.364 10 0 59590 49500.00000 0 3312768.859 17086744.760 18651031.466 10 0 59590 50400.00000 0 2748048.616 19187562.674 16583944.646 10 0 59590 51300.00000 0 2402696.009 21057641.129 14194802.345 10 0 59590 52200.00000 0 2247965.736 22641643.991 11529953.173 10 0 59590 53100.00000 0 2245527.171 23892965.874 8641118.661 10 0 59590 54000.00000 0 2349312.727 24775582.699 5584391.661 10 0 59590 54900.00000 0 2507699.422 25265477.666 2419147.556 10 0 59590 55800.00000 0 2665930.934 25351582.510 -793110.503 10 0 59590 56700.00000 0 2768677.088 25036194.203 -3989949.654 10 0 59590 57600.00000 0 2762621.652 24334849.281 -7109224.923 10 0 59590 58500.00000 0 2598967.990 23275660.933 -10090292.013 10 0 59590 59400.00000 0 2235755.507 21898146.646 -12875191.044 10 0 59590 60300.00000 0 1639887.752 20251595.784 -15409777.667 10 0 59590 61200.00000 0 788785.376 18393045.868 -17644778.986 10 0 59590 62100.00000 0 -328407.035 16384952.740 -19536753.481 10 0 59590 63000.00000 0 -1710112.247 14292652.523 -21048936.210 10 0 59590 63900.00000 0 -3342140.687 12181721.886 -22151952.901 10 0 59590 64800.00000 0 -5198048.423 10115347.080 -22824389.332 10 0 59590 65700.00000 0 -7240018.791 8151811.517 -23053205.317 10 0 59590 66600.00000 0 -9420231.676 6342206.549 -22833985.586 10 0 59590 67500.00000 0 -11682664.037 4728460.377 -22171023.033 10 0 59590 68400.00000 0 -13965247.260 3341766.554 -21077232.981 10 0 59590 69300.00000 0 -16202291.870 2201476.756 -19573900.209 10 0 59590 70200.00000 0 -18327078.981 1314502.896 -17690263.709 10 0 59590 71100.00000 0 -20274510.797 675252.310 -15462947.094 10 0 59590 72000.00000 0 -21983709.750 266097.446 -12935245.635 10 0 59590 72900.00000 0 -23400458.010 58358.986 -10156283.655 10 0 59590 73800.00000 0 -24479375.568 13759.757 -7180058.531 10 0 59590 74700.00000 0 -25185745.891 86287.067 -4064389.995 10 0 59590 75600.00000 0 -25496912.941 224383.794 -869795.273 10 0 59590 76500.00000 0 -25403191.245 373374.772 2341687.878 10 0 59590 77400.00000 0 -24908251.141 478025.141 5507706.960 10 0 59590 78300.00000 0 -24028963.416 485121.803 8566805.683 10 0 59590 79200.00000 0 -22794710.202 345968.281 11459616.279 10 0 59590 80100.00000 0 -21246191.397 18687.063 14130009.876 10 0 59590 81000.00000 0 -19433776.904 -529768.222 16526182.664 10 0 59590 81900.00000 0 -17415473.797 -1321976.165 18601657.053 10 0 59590 82800.00000 0 -15254593.469 -2368855.885 20316178.746 10 0 59590 83700.00000 0 -13017215.985 -3668971.060 21636492.961 10 0 59590 84600.00000 0 -10769556.984 -5208359.731 22536985.387 10 0 59590 85500.00000 0 -8575346.365 -6960897.931 23000176.011 99